Regional Weather Roundup
Issued by NWS

Home | Current Version | Previous Version | Graphics & Text | Print | Product List | Glossary On
Versions: 1 2 3 4 5 6 7 8 9 10 11 12 13 14 15 16 17 18 19 20 21 22 23 24 25 26 27
000
ASUS45 KBOU 242207
RWRCO

WEATHER ROUNDUP FOR COLORADO
NATIONAL WEATHER SERVICE DENVER/BOULDER CO
400 PM MDT FRI MAR 24 2017

NOTE: "FAIR" INDICATES FEW OR NO CLOUDS BELOW 12000 FEET WITH NO
SIGNIFICANT WEATHER AND/OR OBSTRUCTIONS TO VISIBILITY.

COZ001>005-013-030-031-242300-
...NORTHWEST COLORADO...

CITY           SKY/WX    TMP DP  RH WIND       PRES   REMARKS
CRAIG          FAIR      57  23  26 VRB3      30.13F
HAYDEN         FAIR      54  21  28 W8        30.14F
MEEKER         FAIR      54  25  32 VRB3      30.15F
MOUNT WERNER   NOT AVBL
STEAMBOAT SPGS FAIR      48  21  34 CALM      30.14F
WALDEN         NOT AVBL
$$

COZ006>008-011-242300-
...WEST CENTRAL VALLEYS...

CITY           SKY/WX    TMP DP  RH WIND       PRES   REMARKS
GRAND JUNCTION FAIR      61  28  28 SW5       30.12F
MONTROSE       FAIR      55  27  34 SE3       30.14F
EAGLE          MOSUNNY   54  23  30 S6        30.14F
RIFLE          FAIR      59  26  28 SW13      30.11F
DELTA          FAIR      64  27  24 SW17G29   30.10S
NUCLA          FAIR      59  28  31 CALM      30.17F
$$

COZ017>023-064>068-242300-
...SOUTHWEST COLORADO...

CITY           SKY/WX    TMP DP  RH WIND       PRES   REMARKS
DURANGO        FAIR      61  28  28 W20G26    30.03F
CORTEZ         FAIR      58  30  34 NW15      30.13S
PAGOSA SPRINGS FAIR      52  34  50 CALM      30.10F
TELLURIDE      NOT AVBL
WOLF CREEK PAS FAIR      32  18  55 NW5       30.27S WCI  27
$$

COZ009-010-012-014-032>034-037-058>063-242300-
...CENTRAL COLORADO...

CITY           SKY/WX    TMP DP  RH WIND       PRES   REMARKS
ASPEN          PTSUNNY   47  26  44 NE6       30.15F
BUENA VISTA    FAIR      53  14  21 N25G35    30.09S
COPPER MTN     CLOUDY    32  23  69 MISG      30.23S
BERTHOUD PASS  CLOUDY    19  10  68 NW15G25   30.22S WCI   5
COTTONWOOD PAS CLOUDY    50  16  25 CALM      30.16R
GUNNISON       NOT AVBL
KREMMLING      FAIR      55  23  28 N6        30.16F
LEADVILLE      FAIR      37  17  44 N17G25    30.17R
MONARCH PASS   CLOUDY    32  23  69 SW18G31   30.31S WCI  20
SALIDA         CLOUDY    53  23  31 E8G17     30.15S
SUNLIGHT       FAIR      30  27  86 CALM      30.28S
WILKERSON PASS CLOUDY    28  25  86 NE12G18   30.22R WCI  18
$$

COZ069>075-242300-
...SAN LUIS VALLEY/SANGRE DE CRISTO MOUNTAINS...

CITY           SKY/WX    TMP DP  RH WIND       PRES   REMARKS
ALAMOSA        CLOUDY    48  32  53 SE15      30.08R
LA VETA PASS   NOT AVBL
SAGUACHE       FAIR      54  25  32 NW14G24   30.10R
$$

COZ035-036-038>040-242300-
...NORTHERN COLORADO FRONT RANGE...

CITY           SKY/WX    TMP DP  RH WIND       PRES   REMARKS
DENVER INTL AP PTSUNNY   51  32  48 NE15      30.12S
DMNS CITY PARK   N/A     51  28  42 NE10G23   30.12S
AURORA         PTSUNNY   51  34  52 NE15      30.13S
FRONT RANGE AP PTSUNNY   48  36  61 N15G21    30.14R
ERIE MUNI ARPT FAIR      54  23  29 NE13G25   30.11S
BOULDER MUN AP CLOUDY    54  27  35 NE7G16    30.11S
CENTENNIAL     PTSUNNY   48  32  53 N12       30.13S
BROOMFIELD     PTSUNNY   54  25  32 N13       30.13
FORT COLLINS   PTSUNNY   57  24  28 NE21      30.09F
LONGMONT       FAIR      59  25  27 N9G21     30.11S
$$

COZ041-046-047-076>085-087-088-242300-
...PIKES PEAK/PALMER DIVIDE AND SOUTHERN FOOTHILLS...

CITY           SKY/WX    TMP DP  RH WIND       PRES   REMARKS
COLO. SPRINGS  PTSUNNY   44  31  60 NW16G26   30.14R
A. F. ACADEMY  CLOUDY    39  32  75 N12       30.15R
SCHRIEVER AFB  FAIR      42  32  68 N20G26    30.13R
ELLICOTT         N/A      1  32 100 NE24G31   30.10  WCI -22
FALCON         FAIR      40  31  70 N15G25    30.15R
FORT CARSON    NOT AVBL
LIMON          CLOUDY    41  36  82 N14       30.11R
MONUMENT HILL  FAIR      36  30  80 N13G20    30.16S
TRINIDAD       NOT AVBL
$$

COZ042>045-048>051-090-091-242300-
...NORTHEAST COLORADO...

CITY           SKY/WX    TMP DP  RH WIND       PRES   REMARKS
GREELEY ARPT   PTSUNNY   58  24  27 N17G26    30.11S
AKRON          PTSUNNY   49  33  54 N21       30.10R
BURLINGTON     CLOUDY    38  36  92 N22G33    30.05R
WRAY           NOT AVBL
STERLING       PTSUNNY   55  34  44 NE18G24   30.08R
HOLYOKE        DRIZZLE   46  36  66 NE23G31   30.10R
FORT MORGAN    FAIR      55  27  33 NE20G28   30.11S
$$

COZ086-089-092>099-242300-
...SOUTHEAST COLORADO...

CITY           SKY/WX    TMP DP  RH WIND       PRES   REMARKS
PUEBLO         PTSUNNY   50  33  52 N18G29    30.14R
LA JUNTA       CLOUDY    44  37  76 N24G38    30.09R
LAMAR          CLOUDY    44  34  67 N31G40    30.02R
SPRINGFIELD      N/A     41  34  76 N38G49    29.97R
$$




USA.gov is the U.S. government's official web portal to all federal, state and local government web resources and services.